CW9119 Weather Reports


time (UTC)temp
F
wind
direction
speed
knots
gust
knots
rain 1hr
in
rain 24hr
in
rain mn
in
humidity
%
barometer
mb
20260504215108 53 185 0.0 0.9 0.00 0.00 0.00 76 1010.9
20260504214108 53 185 0.0 0.0 0.00 0.00 0.00 74 1011.0
20260504213108 54 185 0.0 0.0 0.00 0.00 0.00 74 1011.2
20260504212108 54 185 0.0 0.0 0.00 0.00 0.00 73 1011.4
20260504210108 55 185 0.0 0.0 0.00 0.00 0.00 72 1011.4
20260504204108 56 185 0.0 0.0 0.00 0.00 0.00 71 1011.6
20260504203108 56 185 0.0 0.0 0.00 0.00 0.00 70 1011.5
20260504202108 57 185 0.0 0.0 0.00 0.00 0.00 69 1011.6
20260504200108 57 185 0.0 0.0 0.00 0.00 0.00 68 1011.5
20260504195108 58 185 0.0 0.0 0.00 0.00 0.00 66 1011.4
20260504193108 59 185 0.0 0.0 0.00 0.00 0.00 64 1011.5
20260504191108 60 185 0.0 0.0 0.00 0.00 0.00 61 1011.2
20260504184107 62 185 0.0 0.0 0.00 0.00 0.00 60 1011.0
20260504182107 64 185 0.0 0.0 0.00 0.00 0.00 59 1011.1
20260504180107 65 185 0.0 0.0 0.00 0.00 0.00 56 1011.0
20260504175107 65 185 0.0 0.0 0.00 0.00 0.00 52 1010.9
20260504172107 67 185 0.0 0.0 0.00 0.00 0.00 49 1010.9
20260504171107 68 185 0.0 0.0 0.00 0.00 0.00 48 1010.9
20260504170107 69 185 0.0 0.0 0.00 0.00 0.00 47 1010.8
20260504141106 70 153 0.0 0.0 0.00 0.00 0.00 47 1011.6
20260504140106 70 152 0.0 0.9 0.00 0.00 0.00 46 1011.7
20260504130109 72 148 1.7 7.0 0.00 0.00 0.00 46 1012.2
20260504090108 64 89 0.0 3.5 0.00 0.00 0.00 53 1013.6
20260504081107 63 168 2.6 10.4 0.00 0.00 0.00 51 1013.4
20260504060106 52 31 0.9 6.1 0.00 0.00 0.00 70 1012.7
20260504043106 48 59 0.0 0.0 0.00 0.00 0.00 73 1012.8
20260504041105 48 59 0.9 4.3 0.00 0.00 0.00 71 1012.7
20260504035105 49 59 0.0 0.0 0.00 0.00 0.00 68 1013.0
20260504031105 52 38 0.0 0.9 0.00 0.00 0.00 60 1013.0
20260504030105 52 38 0.0 0.9 0.00 0.00 0.00 60 1013.1
20260504025105 52 34 0.0 3.5 0.00 0.00 0.00 61 1013.1
20260504024105 52 20 1.7 7.0 0.00 0.00 0.00 61 1013.2
20260504023105 52 83 0.0 3.5 0.00 0.00 0.00 61 1013.1
20260504021105 52 115 0.0 0.0 0.00 0.00 0.00 61 1013.2
20260504012107 53 115 0.0 0.0 0.00 0.00 0.00 62 1013.0
20260504010107 53 115 0.0 0.0 0.00 0.00 0.00 61 1013.1
20260503235106 54 85 0.0 0.0 0.00 0.00 0.00 61 1013.3
20260503231106 55 87 0.0 3.5 0.00 0.00 0.00 60 1013.3
20260503224105 55 104 0.0 0.0 0.00 0.00 0.00 58 1013.6
20260503223105 55 104 0.0 0.9 0.00 0.00 0.00 58 1013.7
20260503221105 56 112 0.0 0.0 0.00 0.00 0.00 57 1013.8
20260503220105 56 112 0.0 0.0 0.00 0.00 0.00 57 1013.7